Regional Weather Roundup
Issued by NWS

Home | Current Version | Previous Version | Graphics & Text | Print | Product List | Glossary On
Versions: 1 2 3 4 5 6 7 8 9 10 11 12 13 14 15 16 17 18 19 20 21 22 23 24 25 26 27 28 29 30 31 32 33 34 35 36 37 38 39 40 41 42 43 44 45 46 47 48 49 50
000
ASUS45 KPSR 282310
RWRAZ

ARIZONA HOURLY REGIONAL WEATHER ROUNDUP
NATIONAL WEATHER SERVICE PHOENIX AZ
400 PM MST SUN AUG 28 2016

NOTE: FAIR INDICATES FEW OR NO CLOUDS BELOW 12,000 FEET WITH NO
SIGNIFICANT WEATHER AND/OR OBSTRUCTIONS TO VISIBILITY.

AZZ001>003-036-290000-
NORTHWEST ARIZONA

CITY           SKY/WX    TMP DP  RH WIND       PRES   REMARKS
KINGMAN        SUNNY     90  46  21 MISG      30.08F
$$

AZZ004>008-015-016-018-290000-
NORTH CENTRAL ARIZONA

CITY           SKY/WX    TMP DP  RH WIND       PRES   REMARKS
GRAND CANYON   SUNNY     74  38  27 E7        30.31F
PRESCOTT       MOSUNNY   79  49  34 NE6       30.18F
FLAGSTAFF      PTSUNNY   70  44  39 NE13      30.31S
PAYSON         MOSUNNY   75  48  38 VRB6      30.22S
PAGE           SUNNY     84  41  21 NW6       30.13F
$$

AZZ009>014-017-290000-
NORTHEAST ARIZONA

CITY           SKY/WX    TMP DP  RH WIND       PRES   REMARKS
WINSLOW        MOSUNNY   79  43  27 N8        30.19F
SAINT JOHNS    MOSUNNY   77  40  26 NW15      30.20F
SHOW LOW       PTSUNNY   68  37  32 NW10      30.28F
$$

AZZ023-290000-
GREATER PHOENIX AREA

CITY           SKY/WX    TMP DP  RH WIND       PRES   REMARKS
PHOENIX        MOSUNNY   99  45  15 W7        29.87F
BUCKEYE        SUNNY     99  41  13 W5        29.89F
LUKE AFB       SUNNY     99  46  16 VRB1      29.87F
DEER VALLEY    SUNNY     96  45  17 CALM      29.90F
SCOTTSDALE     SUNNY     97  44  16 SW9       29.92F
MESA-FALCON      N/A    N/A N/A N/A W12       29.88F
MESA-GATEWAY   MOSUNNY   97  43  15 NW8       29.91F
CHANDLER       SUNNY     99  41  13 W9        29.89F
$$

AZZ027-028-290000-
SOUTHWEST MARICOPA COUNTY AND PINAL COUNTY

CITY           SKY/WX    TMP DP  RH WIND       PRES   REMARKS
CASA GRANDE    SUNNY     99  39  12 W10G16    29.93F
GILA BEND      FAIR     100  38  12 NW9       29.86F
$$

AZZ503-504-507>509-290000-
SOUTHEAST ARIZONA

CITY           SKY/WX    TMP DP  RH WIND       PRES   REMARKS
TUCSON         SUNNY     94  38  14 NW6       29.99F
DAVIS-MONTHAN  SUNNY     94  40  15 VRB3      29.98F
RYAN FIELD     SUNNY     93  36  13 W8        29.99F
NOGALES        SUNNY     89  42  19 VRB5      30.06F
SIERRA VISTA   MOSUNNY   86  37  17 VRB6      30.12F
DOUGLAS        SUNNY     89  39  17 W6        30.06F
SAFFORD        SUNNY     93  36  13 W14G22    29.98F
$$

AZZ020-021-025-026-031-290000-
SOUTHWEST ARIZONA

CITY           SKY/WX    TMP DP  RH WIND       PRES   REMARKS
YUMA           SUNNY    103  39  11 MISG      29.83F
$$

CAZ031-033-041-043-047-048-061-290000-
SOUTHERN CALIFORNIA

CITY           SKY/WX    TMP DP  RH WIND       PRES   REMARKS
DOWNTOWN L.A.  SUNNY     76  59  55 W8        29.94F
L.A. AIRPORT   MOSUNNY   73  60  63 W20       29.95F
SAN DIEGO      MOSUNNY   75  63  66 W12       29.96F
BURBANK        SUNNY     87  59  38 S9        29.93F
ONTARIO        MOSUNNY   93  52  24 W14G22    29.93F
RIVERSIDE      SUNNY     94  55  26 W15       29.92F
PALM SPRINGS   SUNNY    105  50  15 E8        29.85F HX 102
EL CENTRO NAS  SUNNY    103  42  12 SW8       29.84F
IMPERIAL       SUNNY    106  48  14 VRB5      29.82F HX 102
BLYTHE         SUNNY    105  47  14 VRB7      29.84F HX 101
NEEDLES        SUNNY    103  51  17 NE13      29.88F HX 100
$$

NVZ020-UTZ003-290000-
SOUTHERN NEVADA-UTAH

CITY           SKY/WX    TMP DP  RH WIND       PRES   REMARKS
LAS VEGAS      MOSUNNY   96  44  16 VRB3      29.97F
SALT LAKE CITY MOSUNNY   92  33  12 NW10      30.11F
$$

NMZ009-TXZ055-290000-
NEW MEXICO-WEST TEXAS

CITY           SKY/WX    TMP DP  RH WIND       PRES   REMARKS
ALBUQUERQUE    CLOUDY    74  43  32 NW20G29   30.21R
EL PASO        MOSUNNY   89  54  30 N3        30.02F
$$


........................KEY........................
SKY/WX - SKY CONDITION/WEATHER
TMP    - TEMPERATURE IN FAHRENHEIT
DP     - DEW POINT IN FAHRENHEIT
RH     - RELATIVE HUMIDITY IN PERCENT
WIND   - DIRECTION AND SPEED IN MILES PER HOUR (MPH)
VRB    - VARIABLE WIND DIRECTION
PRES   - MEAN SEA LEVEL PRESSURE IN INCHES OF MERCURY
         F - FALLING PRESSURE   R - RISING PRESSURE
         S - STEADY PRESSURE
VSB    - VISIBILITY IN MILES
HX     - HEAT INDEX IN FAHRENHEIT
WCI    - WIND CHILL INDEX IN FAHRENHEIT
TC     - TEMPERATURE IN CELSIUS WHICH IS ALSO KNOWN AS
         TEMPERATURE IN CENTIGRADE
AFB    - AIR FORCE BASE
         LUKE AFB IS LUKE AIR FORCE BASE
         DAVIS-MONTHAN IS DAVIS-MONTHAN AIR FORCE BASE
NAS    - NAVAL AIR STATION
         EL CENTRO NAS IS EL CENTRO NAVAL AIR STATION
N/A    - NOT AVAILABLE




USA.gov is the U.S. government's official web portal to all federal, state and local government web resources and services.